Home   Weather   Ndjamena   Past weeks

Flag for Chad Past Weather in Ndjamena, Chad — Yesterday and Last 2 Weeks

Now
104 °F

Passing clouds.


Feels Like: 98 °F
Forecast: 70 / 105 °F
Wind: 6 mph from East

Location: Ndjamena

Current Time: Jan 23, 2017 at 2:01:33 pm

Latest Report: Jan 23, 2017 at 1:00 pm


Visibility: N/A

Pressure: 29.80 "Hg

Humidity: 6%

Dew Point: 25 °F

Location of NdjamenaLocation

Past Weather in Ndjamena — Graph

°F

Ndjamena Temperature Yesterday

Maximum temperature yesterday: 104 °F (at 2:00 pm)
Minimum temperature yesterday: 66 °F (at 7:00 am)
Average temperature yesterday: 84 °F

High & Low Weather Summary for the Past Weeks

 TemperatureHumidityPressure
High104 °F (Jan 21, 2:00 pm)49% (Jan 13, 5:00 am)29.95 "Hg (Jan 13, 5:00 am)
Low55 °F (Jan 11, 6:00 am)6% (Jan 14, 1:00 pm)29.68 "Hg (Jan 22, 3:00 pm)
Average78 °F20%29.84 "Hg
* Reported Jan 8 12:00 pm — Jan 23 12:00 pm, Ndjamena, Weather by CustomWeather, © 2017

Note: Actual official high and low records may vary slightly from our data, if they occured in-between our weather recording intervals... More about our weather records

Advertising

Ndjamena Weather History for the Previous 24 Hours

Scroll right to see more
 ConditionsComfort  
Time TempWeatherWind HumidityBarometerVisibility
12:00 pm
Mon, Jan 23
102 °FPassing clouds.10 mph6%29.80 "HgN/A
11:00 am99 °FClear.9 mph8%29.83 "Hg5 mi
10:00 am95 °FDuststorm.8 mph9%29.86 "Hg3 mi
9:00 am88 °FDuststorm.8 mph13%29.83 "Hg3 mi
8:00 am81 °FDuststorm.No wind18%29.83 "Hg3 mi
7:00 am70 °FSunny.No wind29%29.83 "Hg10 mi
6:00 am70 °FClear.No wind31%29.80 "Hg10 mi
5:00 am68 °FClear.No wind38%29.80 "Hg10 mi
4:00 am70 °FClear.No wind38%29.80 "Hg10 mi
3:00 am73 °FClear.No wind33%29.80 "Hg10 mi
2:00 am75 °FClear.No wind31%29.80 "Hg10 mi
1:00 am77 °FClear.No wind28%29.80 "Hg10 mi
12:00 am75 °FClear.No wind29%29.80 "Hg10 mi
11:00 pm
Sun, Jan 22
75 °FClear.No wind31%29.80 "Hg10 mi
10:00 pm77 °FClear.No wind32%29.77 "Hg4 mi
9:00 pm79 °FClear.No wind28%29.77 "Hg4 mi
8:00 pm81 °FClear.No wind23%29.74 "Hg5 mi
7:00 pm86 °FClear.No wind24%29.71 "Hg4 mi
6:00 pm93 °FClear.5 mph14%29.71 "Hg4 mi
5:00 pm102 °FSunny.No wind7%29.74 "Hg10 mi
4:00 pm104 °FSunny.No wind7%29.71 "Hg10 mi
3:00 pm104 °FSunny.No wind6%29.68 "Hg10 mi
2:00 pm104 °FPassing clouds.6 mph6%29.74 "HgN/A
Weather by CustomWeather, © 2017

See weather overviewHow to use our weather pages